sat.trackr.live / text

‹ back to catalog

2023-091V

NORAD 57185 · 2023-091V

PAYLOAD ACTIVE UNKNOWN

§ Identity

Operator
Country
TBD
Launch date
2023-06-27
Launch site
VOSTO
Launch vehicle
Mass (kg)
RCS (m²)

External: N2YO · Heavens-Above · Gunter

§ Orbital elements

Epoch: 2026-09-21T21:49:38.716032Z

Period
93.32 min
Inclination
97.4967°
Eccentricity
0.0007161
Mean motion
15.43012394 rev/d
Perigee alt
432.3 km
Apogee alt
442.1 km
Semi-major
6,815.4 km
B*
3.8176e-4
RAAN
338.2270°
Arg perigee
89.4963°
Mean anomaly
270.7105°
Rev number
17,967

§ Raw data

2023-091V1 57185U 23091V   26264.90947588  .00016772  00000+0  38176-3 0  99912 57185  97.4967 338.2270 0007161  89.4963 270.7105 15.43012394179673

JSON: /api/v1/satellites/57185 · /tle

For live sub-satellite position, see the globe view (requires WebGL).

§ Visibility from observer

Set your observer location to see the next 7 days of passes ≥ 10°. The values pass through the URL so the page stays shareable.

No JS? Fill the form by hand. The geolocation button needs JavaScript.